Location: Unspecified
(0.0000°N, 0.0000°E)
Time: 16:14:17
(UTC+00:00)

Magion-4 - Visible Passes

Search period start: 28 May 2023 00:00
Search period end: 07 June 2023 00:00
Orbit: 17067 x 175447 km, 70.3° (Epoch: 09 April)

Date Brightness Start Highest point End Pass type
(mag) Time Alt. Az. Time Alt. Az. Time Alt. Az.
28 May ? 05:23:09 10° NE 10:38:19 56° N 15:42:39 10° WNW visible
29 May ? 05:49:57 10° ENE 11:11:54 82° N 16:28:08 10° W visible
31 May ? 04:45:38 10° NE 09:55:10 41° N 14:44:56 10° NW visible
01 Jun ? 05:12:46 10° ENE 10:29:23 60° N 15:36:00 10° WNW visible
02 Jun ? 05:44:41 10° E 11:05:30 88° S 16:29:52 10° WSW visible
02 Jun ? 21:13:16 10° S 22:49:30 86° E 11:33:08 10° NNW visible
04 Jun ? 04:37:55 10° NE 09:48:42 45° N 14:43:32 10° NW visible
05 Jun ? 05:02:28 10° ENE 10:20:34 64° N 15:29:16 10° WNW visible
06 Jun ? 05:45:47 10° E 10:42:16 67° SSE 15:19:49 10° S visible
